Location: ????????
(55.0808°N, 38.5463°E)
Time: 01:33:16
(UTC+00:00)

Nimbus 3 Rocket - Pass Details

Date: 22 September 2024
Orbit: 1072 x 1131 km, 99.9° (Epoch: 03 October)

Event Time Altitude Azimuth Distance (km) Brightness Sun altitude
Rises 22:22:15 0° 17° (NNE) 3,916 9.2 -33.5°
Reaches altitude 10° 22:24:49 10° 15° (NNE) 2,948 8.3 -33.4°
Enters shadow 22:30:53 61° 319° (NW) 1,214 5.4 -33.1°
